Weather History for Whitefield, NH

Change the Weather History Date:

Monday, December 31, 2012

  Actual Average Record
Temperature  
Mean Temperature 19 °F -  
Max Temperature 28 °F 26 °F 48 °F (2004)
Min Temperature 10 °F 5 °F -15 °F (1998)
Degree Days  
Heating Degree Days 46    
Moisture  
Dew Point 14 °F    
Average Humidity 78    
Maximum Humidity 86    
Minimum Humidity 70    
Precipitation  
Precipitation 0.00 in - - ()
Sea Level Pressure  
Sea Level Pressure 29.89 in    
Wind  
Wind Speed 5 mph (SW)    
Max Wind Speed 9 mph    
Max Gust Speed -    
Visibility 9 miles    
Events Snow    
Averages and records for this station are not official NWS values.
T = Trace of Precipitation, MM = Missing Value Source: NWS Daily Summary

Daily Weather History Graph

Daily Weather History Graph

Search for Another Location

Airport:

Trip Planner

Search our weather history database for the weather conditions in past years. The results will help you decide how hot, cold, wet, or windy it might be!

Date:

Astronomy

Dec. 31, 2012 Rise Set
Actual Time 7:22 AM EST 4:16 PM EST
Civil Twilight 6:48 AM EST 4:50 PM EST
Nautical Twilight 6:12 AM EST 5:26 PM EST
Astronomical Twilight 5:37 AM EST 6:02 PM EST
Moon 7:53 PM EST (12/31) 8:54 AM EST (12/31)
Length of Visible Light 10h 01m
Length of Day
8h 54m
Waning Gibbous, 90% of the Moon is Illuminated
Dec 31
Waning Gibbous
Jan 4
Last Quarter
Jan 11
New
Jan 18
First Quarter
Jan 26
Full

Hourly Weather History & Observations

Time (EST) Temp. Windchill Dew Point Humidity Pressure Visibility Wind Dir Wind Speed Gust Speed Precip Events Conditions
12:52 AM 10.0 °F -2.9 °F 3.0 °F 73% 30.01 in 10.0 mi SW 9.2 mph - N/A   Overcast
1:52 AM 10.9 °F -1.8 °F 3.0 °F 70% 30.03 in 10.0 mi SSW 9.2 mph - N/A   Overcast
2:52 AM 12.0 °F 4.1 °F 3.9 °F 70% 30.04 in 10.0 mi SSW 4.6 mph - N/A   Overcast
3:52 AM 12.0 °F 5.9 °F 5.0 °F 73% 30.03 in 10.0 mi SSW 3.5 mph - N/A   Overcast
4:52 AM 12.9 °F 3.8 °F 6.1 °F 74% 30.02 in 10.0 mi South 5.8 mph - N/A   Overcast
5:52 AM 14.0 °F 8.2 °F 7.0 °F 74% 30.01 in 8.0 mi SSW 3.5 mph - 0.00 in Snow Light Snow
6:28 AM 14.0 °F 6.5 °F 8.6 °F 79% 29.94 in 5.0 mi SW 4.6 mph - 0.00 in Snow Light Snow
6:52 AM 14.0 °F 8.2 °F 8.1 °F 77% 30.01 in 9.0 mi WSW 3.5 mph - 0.00 in   Overcast
7:52 AM 16.0 °F 7.4 °F 9.0 °F 74% 30.00 in 10.0 mi SSW 5.8 mph - N/A   Overcast
9:52 AM 18.0 °F - 12.9 °F 81% 29.99 in 8.0 mi Calm Calm - 0.00 in   Overcast
10:52 AM 18.0 °F 11.1 °F 12.9 °F 81% 29.97 in 8.0 mi West 4.6 mph - 0.00 in Snow Light Snow
11:52 AM 19.9 °F - 15.1 °F 81% 29.95 in 10.0 mi Calm Calm - 0.00 in   Overcast
12:52 PM 21.0 °F 16.2 °F 16.0 °F 81% 29.91 in 8.0 mi WNW 3.5 mph - N/A   Overcast
1:22 PM 21.2 °F - 17.6 °F 86% 29.82 in 3.0 mi Calm Calm - 0.00 in Snow Light Snow
1:52 PM 23.0 °F - 18.0 °F 81% 29.87 in 4.0 mi Calm Calm - 0.00 in Snow Light Snow
2:42 PM 23.0 °F 17.0 °F 17.6 °F 80% 29.81 in 8.0 mi WNW 4.6 mph - 0.00 in   Overcast
2:52 PM 23.0 °F 18.4 °F 18.0 °F 81% 29.86 in 10.0 mi WNW 3.5 mph - 0.00 in   Overcast
3:52 PM 23.0 °F 17.0 °F 19.0 °F 85% 29.85 in 10.0 mi WNW 4.6 mph - N/A   Overcast
4:52 PM 23.0 °F 17.0 °F 18.0 °F 81% 29.83 in 10.0 mi West 4.6 mph - N/A   Overcast
6:52 PM 23.0 °F 18.4 °F 18.0 °F 81% 29.80 in 10.0 mi West 3.5 mph - N/A   Overcast
7:52 PM 23.0 °F - 19.0 °F 85% 29.78 in 10.0 mi Calm Calm - N/A   Overcast
8:28 PM 26.6 °F 22.6 °F 21.2 °F 80% 29.69 in 10.0 mi South 3.5 mph - N/A   Overcast
8:52 PM 27.0 °F 23.0 °F 21.0 °F 78% 29.74 in 10.0 mi SW 3.5 mph - N/A   Overcast
9:52 PM 28.0 °F 24.2 °F 21.0 °F 75% 29.72 in 10.0 mi SSW 3.5 mph - N/A   Overcast
10:52 PM 28.0 °F 22.8 °F 21.9 °F 78% 29.69 in 10.0 mi SW 4.6 mph - N/A   Overcast
11:52 PM 28.0 °F 22.8 °F 23.0 °F 81% 29.65 in 5.0 mi SW 4.6 mph - 0.00 in Snow Light Snow